FW0153 Weather Reports


Display with metric or nautical units.
time (UTC)temp
F
wind
direction
speed
MPH
gust
MPH
rain 1hr
in
rain 24hr
in
rain mn
in
humidity
%
barometer
mb
20260902141212 82 192 18.0 0.0 0.00 0.00 0.00 76 1013.3
20260902140505 81 164 13.0 0.0 0.00 0.00 0.00 77 1013.0
20260902140212 81 168 13.0 0.0 0.00 0.00 0.00 78 1013.3
20260902135713 80 158 13.0 0.0 0.00 0.00 0.00 80 1013.3
20260902135005 80 194 13.0 0.0 0.00 0.00 0.00 80 1013.0
20260902134505 80 167 13.0 0.0 0.00 0.00 0.00 81 1013.3
20260902134005 80 54 13.0 0.0 0.00 0.00 0.00 81 1013.0
20260902133505 80 114 4.0 0.0 0.00 0.00 0.00 82 1013.0
20260902133005 80 139 13.0 0.0 0.00 0.00 0.00 82 1012.7
20260902132504 80 106 9.0 0.0 0.00 0.00 0.00 82 1013.0
20260902132214 79 165 9.0 0.0 0.00 0.00 0.00 83 1013.0
20260902131504 79 131 0.0 0.0 0.00 0.00 0.00 83 1013.0
20260902131005 79 143 4.0 0.0 0.00 0.00 0.00 84 1012.7
20260902130505 79 47 9.0 0.0 0.00 0.00 0.00 84 1013.0
20260902130005 78 52 4.0 0.0 0.00 0.00 0.00 84 1013.0
20260902125505 78 5 0.0 0.0 0.00 0.00 0.00 85 1012.7
20260902125005 78 104 0.0 0.0 0.00 0.00 0.00 85 1012.7
20260902124505 78 113 0.0 0.0 0.00 0.00 0.00 85 1012.3
20260902124005 78 32 0.0 0.0 0.00 0.00 0.00 85 1012.3
20260902123505 78 166 9.0 0.0 0.00 0.00 0.00 85 1012.3
20260902123213 78 89 4.0 0.0 0.00 0.00 0.00 85 1012.3
20260902122712 78 153 4.0 0.0 0.00 0.00 0.00 85 1012.3
20260902122005 78 174 18.0 0.0 0.00 0.00 0.00 85 1012.3
20260902121505 78 109 0.0 0.0 0.00 0.00 0.00 85 1012.3
20260902121005 78 131 4.0 0.0 0.00 0.00 0.00 85 1012.3
20260902120712 78 58 0.0 0.0 0.00 0.00 0.00 85 1012.3
20260902120005 78 93 0.0 0.0 0.00 0.00 0.00 84 1012.3
20260902115505 78 158 13.0 0.0 0.00 0.00 0.00 85 1012.3
20260902115005 78 124 4.0 0.0 0.00 0.00 0.00 84 1012.3
20260902114505 78 49 0.0 0.0 0.00 0.00 0.00 84 1012.3
20260902114213 78 137 0.0 0.0 0.00 0.00 0.00 84 1012.3
20260902113505 78 79 0.0 0.0 0.00 0.00 0.00 85 1012.3
20260902113005 78 151 4.0 0.0 0.00 0.00 0.00 84 1012.3
20260902112505 78 144 13.0 0.0 0.00 0.00 0.00 84 1012.3
20260902112005 78 179 4.0 0.0 0.00 0.00 0.00 84 1012.3
20260902111504 78 145 0.0 0.0 0.00 0.00 0.00 84 1012.3
20260902111213 78 106 0.0 0.0 0.00 0.00 0.00 84 1012.0
20260902110505 78 138 0.0 0.0 0.00 0.00 0.00 84 1012.3
20260902110007 78 108 0.0 0.0 0.00 0.00 0.00 84 1012.0
20260902105505 78 48 9.0 0.0 0.00 0.00 0.00 84 1012.3
20260902105005 78 114 4.0 0.0 0.00 0.00 0.00 83 1012.3
20260902104505 79 107 0.0 0.0 0.00 0.00 0.00 83 1012.3
20260902104005 78 66 4.0 0.0 0.00 0.00 0.00 83 1012.0
20260902103505 78 181 13.0 0.0 0.00 0.00 0.00 83 1012.3
20260902103004 78 152 4.0 0.0 0.00 0.00 0.00 83 1012.0
20260902102505 78 66 0.0 0.0 0.00 0.00 0.00 83 1012.3
20260902102005 79 66 4.0 0.0 0.00 0.00 0.00 83 1012.0
20260902101505 79 74 4.0 0.0 0.00 0.00 0.00 82 1012.0
20260902101005 79 139 4.0 0.0 0.00 0.00 0.00 82 1012.3
20260902100505 79 131 9.0 0.0 0.00 0.00 0.00 82 1012.3
20260902100005 79 138 9.0 0.0 0.00 0.00 0.00 82 1012.0
20260902095505 79 66 18.0 0.0 0.00 0.00 0.00 82 1012.0
20260902095005 79 77 4.0 0.0 0.00 0.00 0.00 82 1012.3
20260902094505 79 127 4.0 0.0 0.00 0.00 0.00 82 1012.0
20260902094004 79 81 13.0 0.0 0.00 0.00 0.00 82 1012.3
20260902093505 79 145 4.0 0.0 0.00 0.00 0.00 82 1012.3
20260902093005 79 100 9.0 0.0 0.00 0.00 0.00 82 1012.3
20260902092505 79 110 0.0 0.0 0.00 0.00 0.00 81 1012.3
20260902092005 79 116 4.0 0.0 0.00 0.00 0.00 81 1012.3
20260902091711 79 82 9.0 0.0 0.00 0.00 0.00 81 1012.3
20260902091005 79 176 18.0 0.0 0.00 0.00 0.00 81 1012.3
20260902090711 79 132 4.0 0.0 0.00 0.00 0.00 81 1012.3
20260902090005 79 101 9.0 0.0 0.00 0.00 0.00 81 1012.3
20260902085505 79 164 9.0 0.0 0.00 0.00 0.00 81 1012.3
20260902085005 79 198 13.0 0.0 0.00 0.00 0.00 80 1012.3
20260902084505 79 112 13.0 0.0 0.00 0.00 0.00 80 1012.3
20260902084005 79 160 13.0 0.0 0.00 0.00 0.00 80 1012.3
20260902083505 79 192 9.0 0.0 0.00 0.00 0.00 80 1012.3
20260902083005 79 144 4.0 0.0 0.00 0.00 0.00 80 1012.3
20260902082505 79 136 4.0 0.0 0.00 0.00 0.00 80 1012.3
20260902081005 80 141 9.0 0.0 0.00 0.00 0.00 80 1012.3
20260902080713 80 127 13.0 0.0 0.00 0.00 0.00 80 1012.3
20260902080004 79 170 9.0 0.0 0.00 0.00 0.00 80 1012.3
20260902075505 80 162 4.0 0.0 0.00 0.00 0.00 80 1012.7
20260902075005 80 175 13.0 0.0 0.00 0.00 0.00 80 1013.0
20260902074505 80 163 9.0 0.0 0.00 0.00 0.00 80 1012.7
20260902074005 80 142 4.0 0.0 0.00 0.00 0.00 80 1012.7
20260902073505 80 144 13.0 0.0 0.00 0.00 0.00 80 1012.7
20260902073005 80 331 9.0 0.0 0.00 0.00 0.00 80 1012.7
20260902072505 80 167 9.0 0.0 0.00 0.00 0.00 80 1013.0
20260902072005 80 48 4.0 0.0 0.00 0.00 0.00 80 1013.0
20260902071712 80 134 4.0 0.0 0.00 0.00 0.00 80 1013.0
20260902071211 80 141 4.0 0.0 0.00 0.00 0.00 80 1013.0
20260902070505 80 8 18.0 0.0 0.00 0.00 0.00 80 1013.0
20260902070006 80 80 4.0 0.0 0.00 0.00 0.00 79 1013.0
20260902065505 80 93 4.0 0.0 0.00 0.00 0.00 79 1013.0
20260902065005 80 69 9.0 0.0 0.00 0.00 0.00 80 1013.0
20260902064505 80 138 9.0 0.0 0.00 0.00 0.00 79 1013.3
20260902064213 80 158 4.0 0.0 0.00 0.00 0.00 79 1013.3
20260902063505 80 149 13.0 0.0 0.00 0.00 0.00 79 1013.3
20260902063005 80 135 4.0 0.0 0.00 0.00 0.00 79 1013.3
20260902062505 80 108 4.0 0.0 0.00 0.00 0.00 79 1013.0
20260902062213 80 269 9.0 0.0 0.00 0.00 0.00 79 1013.3
20260902061004 80 133 4.0 0.0 0.00 0.00 0.00 79 1013.0
20260902060505 80 94 9.0 0.0 0.00 0.00 0.00 79 1013.0
20260902060005 80 111 4.0 0.0 0.00 0.00 0.00 79 1013.3
20260902055505 80 78 4.0 0.0 0.00 0.00 0.00 79 1013.3
20260902055005 80 138 0.0 0.0 0.00 0.00 0.00 79 1013.3
20260902054505 80 1 9.0 0.0 0.00 0.00 0.00 79 1013.3
20260902054005 80 355 9.0 0.0 0.00 0.00 0.00 79 1013.3
20260902053505 80 124 4.0 0.0 0.00 0.00 0.00 79 1013.3
20260902053005 80 147 4.0 0.0 0.00 0.00 0.00 79 1013.3
20260902052505 80 105 13.0 0.0 0.00 0.00 0.00 79 1013.3
20260902052005 80 83 4.0 0.0 0.00 0.00 0.00 79 1013.3
20260902051505 80 42 23.0 0.0 0.00 0.00 0.00 79 1013.3
20260902051005 80 204 9.0 0.0 0.00 0.00 0.00 79 1013.3
20260902050505 80 88 9.0 0.0 0.00 0.00 0.00 78 1013.3
20260902045713 80 135 4.0 0.0 0.00 0.00 0.00 78 1013.3
20260902045004 80 114 9.0 0.0 0.00 0.00 0.00 78 1013.3
20260902044505 80 117 13.0 0.0 0.00 0.00 0.00 78 1013.3
20260902044005 80 82 13.0 0.0 0.00 0.00 0.00 78 1013.3
20260902043505 80 110 9.0 0.0 0.00 0.00 0.00 78 1013.3
20260902043005 80 57 4.0 0.0 0.00 0.00 0.00 77 1013.3
20260902042505 80 162 18.0 0.0 0.00 0.00 0.00 77 1013.3
20260902042005 80 189 27.0 0.0 0.00 0.00 0.00 77 1013.3
20260902041505 80 124 0.0 0.0 0.00 0.00 0.00 76 1013.3
20260902041005 80 156 4.0 0.0 0.00 0.00 0.00 76 1013.3
20260902040504 80 73 9.0 0.0 0.00 0.00 0.00 76 1013.3
20260902040005 80 70 13.0 0.0 0.00 0.00 0.00 76 1013.0
20260902035505 80 56 9.0 0.0 0.00 0.00 0.00 76 1013.0
20260902035005 80 23 9.0 0.0 0.00 0.00 0.00 76 1013.0
20260902034505 80 148 9.0 0.0 0.00 0.00 0.00 76 1012.7
20260902034212 80 58 13.0 0.0 0.00 0.00 0.00 76 1013.3
20260902033505 81 191 13.0 0.0 0.00 0.00 0.00 75 1012.7
20260902033005 81 123 4.0 0.0 0.00 0.00 0.00 75 1013.0
20260902032505 81 57 13.0 0.0 0.00 0.00 0.00 74 1012.7
20260902032005 81 103 23.0 0.0 0.00 0.00 0.00 74 1012.7
20260902031505 81 71 4.0 0.0 0.00 0.00 0.00 74 1012.7
20260902031005 81 52 4.0 0.0 0.00 0.00 0.00 74 1012.3
20260902030505 81 41 4.0 0.0 0.00 0.00 0.00 73 1012.3
20260902030004 81 95 18.0 0.0 0.00 0.00 0.00 73 1012.3
20260902025505 81 69 23.0 0.0 0.00 0.00 0.00 72 1012.3
20260902025005 82 133 18.0 0.0 0.00 0.00 0.00 72 1012.3
20260902024505 82 184 9.0 0.0 0.00 0.00 0.00 71 1011.6
20260902024005 82 87 9.0 0.0 0.00 0.00 0.00 71 1011.6
20260902023505 82 195 13.0 0.0 0.00 0.00 0.00 70 1011.6
20260902023005 82 74 9.0 0.0 0.00 0.00 0.00 70 1011.6
20260902022505 83 28 13.0 0.0 0.00 0.00 0.00 69 1011.6
20260902022005 83 62 9.0 0.0 0.00 0.00 0.00 68 1011.6
20260902021505 83 62 18.0 0.0 0.00 0.00 0.00 67 1011.3
20260902021005 83 16 4.0 0.0 0.00 0.00 0.00 66 1011.3
20260902020505 83 67 13.0 0.0 0.00 0.00 0.00 64 1011.0
20260902020005 83 125 4.0 0.0 0.00 0.00 0.00 63 1011.3
20260902015505 83 24 9.0 0.0 0.00 0.00 0.00 63 1011.0
20260902015005 83 230 13.0 0.0 0.00 0.00 0.00 62 1011.0
20260902014504 84 36 13.0 0.0 0.00 0.00 0.00 61 1010.6
20260902014005 84 135 4.0 0.0 0.00 0.00 0.00 59 1010.6
20260902013505 84 26 13.0 0.0 0.00 0.00 0.00 59 1010.6
20260902013005 85 62 13.0 0.0 0.00 0.00 0.00 58 1010.3
20260902012505 85 61 23.0 0.0 0.00 0.00 0.00 56 1010.6
20260902012005 85 62 4.0 0.0 0.00 0.00 0.00 56 1010.6
20260902011505 85 148 9.0 0.0 0.00 0.00 0.00 54 1010.6
20260902011005 86 84 9.0 0.0 0.00 0.00 0.00 53 1010.3
20260902010712 86 68 4.0 0.0 0.00 0.00 0.00 53 1010.3
20260902010005 86 85 27.0 0.0 0.00 0.00 0.00 52 1010.3
20260902005505 86 108 9.0 0.0 0.00 0.00 0.00 51 1010.3
20260902005005 86 112 9.0 0.0 0.00 0.00 0.00 51 1009.9
20260902004505 86 76 9.0 0.0 0.00 0.00 0.00 50 1009.9
20260902004213 86 75 13.0 0.0 0.00 0.00 0.00 49 1009.9
20260902003712 87 72 13.0 0.0 0.00 0.00 0.00 48 1009.9
20260902003213 87 147 23.0 0.0 0.00 0.00 0.00 46 1009.6
20260902002505 88 69 4.0 0.0 0.00 0.00 0.00 44 1009.6
20260902002213 88 54 9.0 0.0 0.00 0.00 0.00 44 1009.6
20260902001505 88 40 13.0 0.0 0.00 0.00 0.00 44 1009.6
20260902001005 88 43 9.0 0.0 0.00 0.00 0.00 43 1009.6
20260902000711 89 64 9.0 0.0 0.00 0.00 0.00 41 1009.6
20260902000213 89 88 13.0 0.0 0.00 0.00 0.00 40 1009.3
20260901235505 89 59 9.0 0.0 0.00 0.00 0.00 39 1009.3
20260901235005 89 108 9.0 0.0 0.00 0.00 0.00 39 1009.3
20260901234505 89 64 18.0 0.0 0.00 0.00 0.00 38 1009.3
20260901234005 89 74 13.0 0.0 0.00 0.00 0.00 38 1009.3
20260901233713 90 122 9.0 0.0 0.00 0.00 0.00 38 1009.3
20260901233213 90 138 9.0 0.0 0.00 0.00 0.00 38 1008.9
20260901232505 91 76 4.0 0.0 0.00 0.00 0.00 37 1009.3
20260901232005 91 191 9.0 0.0 0.00 0.00 0.00 37 1008.9
20260901231505 91 42 18.0 0.0 0.00 0.00 0.00 37 1009.3
20260901231005 92 100 18.0 0.0 0.00 0.00 0.00 37 1008.9
20260901230505 92 21 4.0 0.0 0.00 0.00 0.00 37 1009.3
20260901230212 92 137 9.0 0.0 0.00 0.00 0.00 37 1008.9
20260901225505 92 81 13.0 0.0 0.00 0.00 0.00 36 1008.9
20260901225004 92 75 13.0 0.0 0.00 0.00 0.00 36 1008.9
20260901224505 92 24 13.0 0.0 0.00 0.00 0.00 37 1008.9
20260901224005 92 65 9.0 0.0 0.00 0.00 0.00 36 1008.9
20260901223505 92 114 18.0 0.0 0.00 0.00 0.00 37 1008.9
20260901223006 93 128 13.0 0.0 0.00 0.00 0.00 36 1008.9
20260901222505 92 149 4.0 0.0 0.00 0.00 0.00 35 1008.9
20260901222005 93 149 13.0 0.0 0.00 0.00 0.00 35 1008.9
20260901221505 93 137 9.0 0.0 0.00 0.00 0.00 35 1008.9
20260901221005 93 113 18.0 0.0 0.00 0.00 0.00 35 1008.9
20260901220505 93 58 9.0 0.0 0.00 0.00 0.00 35 1009.3
20260901220005 94 41 4.0 0.0 0.00 0.00 0.00 34 1008.9
20260901215713 93 174 9.0 0.0 0.00 0.00 0.00 34 1009.3
20260901215005 93 86 13.0 0.0 0.00 0.00 0.00 34 1008.9
20260901214505 93 149 23.0 0.0 0.00 0.00 0.00 33 1008.9
20260901214005 93 158 9.0 0.0 0.00 0.00 0.00 37 1008.9
20260901213505 93 53 13.0 0.0 0.00 0.00 0.00 34 1009.3
20260901213005 94 110 18.0 0.0 0.00 0.00 0.00 33 1009.3
20260901212712 94 78 13.0 0.0 0.00 0.00 0.00 32 1008.9
20260901212005 95 50 9.0 0.0 0.00 0.00 0.00 32 1009.3
20260901211712 95 125 4.0 0.0 0.00 0.00 0.00 32 1008.9
20260901211212 95 102 18.0 0.0 0.00 0.00 0.00 31 1009.3
20260901210505 95 11 4.0 0.0 0.00 0.00 0.00 30 1009.6
20260901210005 95 133 4.0 0.0 0.00 0.00 0.00 30 1009.6
20260901205505 95 164 23.0 0.0 0.00 0.00 0.00 30 1009.6
20260901205005 94 191 18.0 0.0 0.00 0.00 0.00 32 1009.6
20260901204505 93 149 9.0 0.0 0.00 0.00 0.00 32 1009.6
20260901204213 94 35 9.0 0.0 0.00 0.00 0.00 32 1009.9
20260901203505 93 172 4.0 0.0 0.00 0.00 0.00 32 1009.6
20260901203004 94 84 23.0 0.0 0.00 0.00 0.00 32 1010.3
20260901202505 93 125 9.0 0.0 0.00 0.00 0.00 34 1010.3
20260901202005 93 134 13.0 0.0 0.00 0.00 0.00 34 1010.3
20260901201505 95 40 4.0 0.0 0.00 0.00 0.00 33 1009.9
20260901201005 93 114 4.0 0.0 0.00 0.00 0.00 35 1010.3
20260901200505 94 92 9.0 0.0 0.00 0.00 0.00 35 1010.6
20260901200211 93 39 9.0 0.0 0.00 0.00 0.00 35 1010.6
20260901195505 94 101 9.0 0.0 0.00 0.00 0.00 35 1010.6
20260901195005 94 42 13.0 0.0 0.00 0.00 0.00 34 1010.6
20260901194712 93 139 9.0 0.0 0.00 0.00 0.00 37 1011.0
20260901194005 93 31 18.0 0.0 0.00 0.00 0.00 37 1011.0
20260901193505 93 310 13.0 0.0 0.00 0.00 0.00 36 1011.0
20260901193005 93 164 13.0 0.0 0.00 0.00 0.00 36 1011.0
20260901192505 93 146 4.0 0.0 0.00 0.00 0.00 36 1011.0
20260901192005 94 167 4.0 0.0 0.00 0.00 0.00 36 1011.0
20260901191505 93 151 18.0 0.0 0.00 0.00 0.00 36 1011.0
20260901191004 93 113 9.0 0.0 0.00 0.00 0.00 35 1011.3
20260901190505 92 126 4.0 0.0 0.00 0.00 0.00 36 1011.3
20260901190213 93 149 4.0 0.0 0.00 0.00 0.00 37 1011.3
20260901185505 93 148 23.0 0.0 0.00 0.00 0.00 37 1011.6
20260901185005 92 30 9.0 0.0 0.00 0.00 0.00 38 1011.6
20260901184505 92 104 0.0 0.0 0.00 0.00 0.00 38 1011.6
20260901184005 92 125 18.0 0.0 0.00 0.00 0.00 38 1011.6
20260901183505 92 142 13.0 0.0 0.00 0.00 0.00 39 1011.6
20260901183212 92 166 13.0 0.0 0.00 0.00 0.00 39 1011.6
20260901182713 92 62 9.0 0.0 0.00 0.00 0.00 38 1012.0
20260901182005 91 58 13.0 0.0 0.00 0.00 0.00 41 1012.0
20260901181505 91 111 9.0 0.0 0.00 0.00 0.00 41 1012.3
20260901181005 91 175 4.0 0.0 0.00 0.00 0.00 41 1012.0
20260901180505 91 149 9.0 0.0 0.00 0.00 0.00 42 1012.3
20260901180005 91 49 18.0 0.0 0.00 0.00 0.00 43 1012.3
20260901175505 90 146 4.0 0.0 0.00 0.00 0.00 42 1012.7
20260901175005 90 175 9.0 0.0 0.00 0.00 0.00 43 1012.7
20260901174505 91 31 18.0 0.0 0.00 0.00 0.00 42 1012.3
20260901174212 91 166 9.0 0.0 0.00 0.00 0.00 43 1012.7
20260901173505 89 152 9.0 0.0 0.00 0.00 0.00 46 1012.7
20260901173005 90 159 0.0 0.0 0.00 0.00 0.00 44 1012.7
20260901172713 90 148 13.0 0.0 0.00 0.00 0.00 46 1012.7
20260901172005 89 41 9.0 0.0 0.00 0.00 0.00 46 1012.7
20260901171505 89 144 13.0 0.0 0.00 0.00 0.00 45 1013.0
20260901171005 89 149 23.0 0.0 0.00 0.00 0.00 45 1012.7
20260901170504 89 130 9.0 0.0 0.00 0.00 0.00 48 1013.0
20260901170005 89 126 13.0 0.0 0.00 0.00 0.00 45 1013.0
20260901165505 89 164 4.0 0.0 0.00 0.00 0.00 49 1013.3
20260901165212 89 114 0.0 0.0 0.00 0.00 0.00 50 1013.3
20260901164505 89 86 18.0 0.0 0.00 0.00 0.00 49 1013.3
20260901164005 88 175 9.0 0.0 0.00 0.00 0.00 54 1013.3
20260901163713 88 164 9.0 0.0 0.00 0.00 0.00 52 1013.3
20260901163005 89 52 13.0 0.0 0.00 0.00 0.00 53 1013.3
20260901162504 87 96 0.0 0.0 0.00 0.00 0.00 55 1013.0
20260901162212 87 104 13.0 0.0 0.00 0.00 0.00 54 1013.3
20260901161505 87 174 4.0 0.0 0.00 0.00 0.00 55 1013.3
20260901161005 86 154 9.0 0.0 0.00 0.00 0.00 57 1013.3
20260901160505 86 33 9.0 0.0 0.00 0.00 0.00 58 1013.3
20260901160004 86 95 4.0 0.0 0.00 0.00 0.00 59 1013.3
20260901155713 86 163 9.0 0.0 0.00 0.00 0.00 59 1013.3
20260901155005 86 146 13.0 0.0 0.00 0.00 0.00 60 1013.3
20260901154505 85 175 27.0 0.0 0.00 0.00 0.00 60 1013.3
20260901154005 85 163 13.0 0.0 0.00 0.00 0.00 61 1013.3
20260901153712 85 165 23.0 0.0 0.00 0.00 0.00 61 1013.3
20260901153005 84 58 4.0 0.0 0.00 0.00 0.00 64 1013.3
20260901152504 85 178 13.0 0.0 0.00 0.00 0.00 62 1013.3
20260901152005 84 73 9.0 0.0 0.00 0.00 0.00 62 1013.0
20260901151505 84 30 13.0 0.0 0.00 0.00 0.00 63 1013.3
20260901151005 84 73 13.0 0.0 0.00 0.00 0.00 64 1013.3
20260901150505 83 76 13.0 0.0 0.00 0.00 0.00 66 1013.3
20260901150211 83 126 13.0 0.0 0.00 0.00 0.00 68 1013.3
20260901145505 83 97 9.0 0.0 0.00 0.00 0.00 70 1013.3
20260901145005 83 175 9.0 0.0 0.00 0.00 0.00 69 1013.3
20260901144505 82 151 9.0 0.0 0.00 0.00 0.00 70 1013.3
20260901144005 82 100 4.0 0.0 0.00 0.00 0.00 72 1013.3
20260901143505 82 97 9.0 0.0 0.00 0.00 0.00 73 1013.3
20260901143005 82 133 9.0 0.0 0.00 0.00 0.00 73 1013.3
20260901142505 81 164 4.0 0.0 0.00 0.00 0.00 75 1013.3
20260901142004 81 176 9.0 0.0 0.00 0.00 0.00 74 1013.3
20260901141505 81 151 13.0 0.0 0.00 0.00 0.00 76 1013.3